Regional Weather Roundup
Issued by NWS New Orleans/Baton Rouge, LA

Home | Current Version | Previous Version | Graphics & Text | Print | Product List | Glossary On
Versions: 1 2 3 4 5 6 7 8 9 10 11 12 13 14 15 16 17 18 19 20 21 22 23 24 25 26 27 28 29 30 31 32 33 34 35 36 37 38 39 40 41 42 43 44 45 46 47 48 49 50
768
ASUS44 KLIX 020510
RWRLIX
NEW ORLEANS REGIONAL WEATHER ROUNDUP
NATIONAL WEATHER SERVICE NEW ORLEANS LA
1200 AM CDT THU OCT 02 2014

NOTE: "FAIR" INDICATES FEW OR NO CLOUDS BELOW 12,000 FEET WITH NO
      SIGNIFICANT WEATHER AND/OR OBSTRUCTIONS TO VISIBILITY.
      SKY/WX - SKY CONDITION AND SIGNIFICANT WEATHER.
      TMP - AIR TEMPERATURE.     DP    - DEWPOINT TEMPERATURE.
      RH  - RELATIVE HUMIDITY.   PRES  - PRESSURE.
      HI  - HEAT INDEX.          WCI   - WIND CHILL INDEX.

*  THESE STATIONS ARE NOT NWS OR FAA STATIONS AND ARE NOT UNDER
   NWS QUALITY CONTROL.

LAZ038-040-048-061>063-065>067-069-020600-
SOUTHEAST LOUISIANA

CITY           SKY/WX    TMP DP  RH WIND       PRES   REMARKS
N.O. AUDUBON     N/A     78  78 100 MISG        N/A
N.O. INTL ARPT PTCLDY    78  75  90 SE7       29.94S
N.O. LAKEFRONT PTCLDY    78  75  90 SE7       29.95S
N.O. DOWNTOWN*   N/A     79  73  83 S3        29.95S
SLIDELL        PTCLDY    78  74  87 SE3       29.94F
BATON ROUGE    CLOUDY    76  74  93 E3        29.93S
BOOTHVILLE     CLEAR     78  77  96 E5        29.96S
BELLE CHASSE   MOCLDY    79  74  84 SE5       29.94F
BOGALUSA*      MOCLDY    77  72  84 CALM      29.97S
GALLIANO*      NOT AVBL
NEW ROADS*     CLOUDY    76  75  97 SE5       29.92S
GONZALES*      MOCLDY    77  77 100 S6        29.93S
HAMMOND*       CLOUDY    79  73  83 SE5       29.96S
HOUMA*         CLEAR    N/A N/A N/A CALM      29.94S
PORT FOURCHON* PTCLDY    81  75  83 SE6       29.97F

$$

MSZ070-080>082-020600-
SOUTHERN MISSISSIPPI

CITY           SKY/WX    TMP DP  RH WIND       PRES   REMARKS
MCCOMB         CLOUDY    75  72  90 SE7       29.95F
GULFPORT       CLOUDY    80  74  81 SE9       29.95S
BILOXI         MOCLDY    80  74  83 S9        29.96S
PASCAGOULA     CLEAR     71  70  96 CALM      29.96F

$$

COASTAL OBSERVATIONS
LAKE AND NEARSHORE STATIONS

STATION/POSITION TIME  TEMP    WIND        PRES    WAVE
                       AIR SEA DIR/SP/G            HT/PER
                 (UTC) (F)     (DEG/KT/KT) (MB)    (FT/S)
PASCAGOULA       0500   80     150/  6/  8 1014.0
WAVELAND YACHT   0500   80     150/  9/ 12 1013.6
GRAND ISLE       0500   80 81  150/  5/  8 1014.6
SOUTHWEST PASS   0500   80 85  170/  4/  6 1014.6
NEW CANAL        0500   78 77  140/  2/  5 1014.4
SHELL BEACH      0500   79 76  140/  7/  9 1013.9

OFFSHORE STATIONS

STATION/POSITION TIME  TEMP    WIND        PRES    WAVE
                       AIR SEA DIR/SP/G            HT/PER
                 (UTC) (F)     (DEG/KT/KT) (MB)    (FT/S)
64 S DAUPHIN ISL 0429   81 82  130/ 10/ 12 1015.0    1/ 3

$$




USA.gov is the U.S. government's official web portal to all federal, state and local government web resources and services.